Location: Coed Ely
(51.5661°N, 3.4150°W)
Time: 02:19:56
(UTC+00:00)

Cosmos 44 - Pass Details

Date: 28 January 2021
Orbit: 572 x 789 km, 65.1° (Epoch: 28 February)

Event Time Altitude Azimuth Distance (km) Brightness Sun altitude
Rises 19:07:56 0° 246° (WSW) 3,039 7.9 -20.3°
Reaches altitude 10° 19:10:19 10° 254° (WSW) 2,162 7.0 -20.7°
Maximum altitude 19:15:00 41° 325° (NW) 1,060 4.4 -21.4°
Enters shadow 19:17:55 22° 22° (NNE) 1,604 4.9 -21.9°
